Marrakech, Morocco

7:19 AM WET on December 03, 2016 (GMT +0000)
Menara

Weather History for GMMX - April, 2013

Change the Weather History Date:

Monday, April 15, 2013

  Actual Average Record
Temperature  
Mean Temperature 74 °F -  
Max Temperature 91 °F 78 °F 93 °F (2011)
Min Temperature 56 °F 54 °F 48 °F (2002)
Cooling Degree Days 8    
Growing Degree Days 24 (Base 50)    
Moisture  
Dew Point 58 °F    
Average Humidity 62    
Maximum Humidity 94    
Minimum Humidity 23    
Precipitation  
Precipitation 0.00 in 0.04 in - ()
Sea Level Pressure  
Sea Level Pressure 30.09 in    
Wind  
Wind Speed 5 mph ()    
Max Wind Speed 10 mph    
Max Gust Speed -    
Visibility 5.8 miles    
Events      
Averages and records for this station are not official NWS values.
T = Trace of Precipitation, MM = Missing Value Source: Averaged Metar Reports

Daily Weather History Graph

Daily Weather History Graph

Search for Another Location

Airport or City:

Trip Planner

Search our weather history database for the weather conditions in past years. The results will help you decide how hot, cold, wet, or windy it might be!

Date:

Astronomy

Apr. 15, 2013 Rise Set
Actual Time 6:03 AM WET 7:01 PM WET
Civil Twilight 5:38 AM WET 7:26 PM WET
Nautical Twilight 5:09 AM WET 7:55 PM WET
Astronomical Twilight 4:38 AM WET 8:26 PM WET
Moon 9:29 AM WET (4/15) 11:39 PM WET (4/15)
Length of Visible Light 13h 47m
Length of Day
12h 57m
Waxing Crescent, 23% of the Moon is Illuminated
Apr 15
Waxing Crescent
Apr 18
First Quarter
Apr 25
Full
May 2
Last Quarter
May 10
New

Hourly Weather History & Observations

Time (WET) Temp. Heat Index Dew Point Humidity Pressure Visibility Wind Dir Wind Speed Gust Speed Precip Events Conditions
12:00 AM 65 °F - 55 °F 61% 30.10 in 6 mi West 3.5 mph - -  
12:00 AM 66.2 °F - 55.4 °F 68% 30.12 in - West 2.3 mph - N/A   Clear
12:30 AM 64.4 °F - 55.4 °F 73% 30.12 in 5.6 mi SSW 4.6 mph - N/A   Unknown
1:00 AM 62.6 °F - 53.6 °F 72% 30.15 in - SW 5.8 mph - N/A   Clear
1:30 AM 62.6 °F - 53.6 °F 72% 30.15 in - SW 8.1 mph - N/A   Clear
2:00 AM 60.8 °F - 55.4 °F 82% 30.15 in - WSW 6.9 mph - N/A   Clear
2:30 AM 60.8 °F - 55.4 °F 82% 30.12 in - SW 5.8 mph - N/A   Clear
3:00 AM 59 °F - 55 °F 83% 30.12 in 6 mi WSW 4.6 mph - -  
3:00 AM 59.0 °F - 55.4 °F 88% 30.12 in - WSW 4.6 mph - N/A   Clear
3:30 AM 59.0 °F - 55.4 °F 88% 30.12 in - Variable 2.3 mph - N/A   Clear
4:00 AM 59.0 °F - 55.4 °F 88% 30.12 in - SSW 3.5 mph - N/A   Clear
4:30 AM 59.0 °F - 55.4 °F 88% 30.12 in - SW 3.5 mph - N/A   Clear
5:00 AM 59.0 °F - 55.4 °F 88% 30.12 in - SW 4.6 mph - N/A   Clear
5:30 AM 57.2 °F - 55.4 °F 94% 30.12 in - West 3.5 mph - N/A   Clear
6:00 AM 57 °F - 54 °F 88% 30.12 in 6 mi WSW 3.5 mph - -  
6:00 AM 57.2 °F - 55.4 °F 94% 30.12 in - West 2.3 mph - N/A   Clear
6:30 AM 57.2 °F - 55.4 °F 94% 30.12 in - SW 3.5 mph - N/A   Clear
7:00 AM 59.0 °F - 55.4 °F 88% 30.12 in 3.7 mi Calm Calm - N/A   Unknown
7:30 AM 62.6 °F - 55.4 °F 77% 30.15 in 5.6 mi North 4.6 mph - N/A   Unknown
8:00 AM 64.4 °F - 55.4 °F 73% 30.12 in 5.0 mi North 3.5 mph - N/A   Unknown
8:30 AM 66.2 °F - 57.2 °F 73% 30.12 in 5.0 mi North 3.5 mph - N/A   Unknown
9:00 AM 69 °F - 58 °F 60% 30.09 in 6 mi East 4.6 mph - -  
9:00 AM 68.0 °F - 57.2 °F 68% 30.12 in - ESE 4.6 mph - N/A   Clear
9:30 AM 71.6 °F - 59.0 °F 64% 30.12 in - East 4.6 mph - N/A   Clear
10:00 AM 73.4 °F - 59.0 °F 61% 30.12 in - NE 4.6 mph - N/A   Clear
10:30 AM 75.2 °F - 60.8 °F 61% 30.12 in - NE 5.8 mph - N/A   Clear
11:00 AM 77.0 °F - 60.8 °F 57% 30.12 in - NE 5.8 mph - N/A   Clear
11:30 AM 78.8 °F - 60.8 °F 54% 30.12 in - NE 9.2 mph - N/A   Clear
12:00 PM 80 °F - 60 °F 39% 30.02 in 6 mi NE 6.9 mph - -  
12:00 PM 78.8 °F - 59.0 °F 51% 30.09 in - NE 6.9 mph - N/A   Clear
12:30 PM 82.4 °F 82.9 °F 60.8 °F 48% 30.09 in - North 5.8 mph - N/A   Clear
1:00 PM 82.4 °F 82.5 °F 59.0 °F 45% 30.06 in 6.2 mi ENE 8.1 mph - N/A   Unknown
1:30 PM 86.0 °F 85.4 °F 59.0 °F 40% 30.06 in 6.2 mi NNE 5.8 mph - N/A   Partly Cloudy
2:00 PM 86.0 °F 85.4 °F 59.0 °F 40% 30.06 in 6.2 mi Variable 2.3 mph - N/A   Partly Cloudy
2:30 PM 87.8 °F 87.1 °F 59.0 °F 38% 30.06 in 6.2 mi Variable 2.3 mph - N/A   Partly Cloudy
2:45 PM 89 °F - 60 °F 27% 29.94 in 6 mi NNW 8.1 mph - -   Scattered Clouds
3:00 PM 89.6 °F 88.9 °F 59.0 °F 36% 30.04 in 6.2 mi NNW 8.1 mph - N/A   Partly Cloudy
3:30 PM 89.6 °F 88.9 °F 59.0 °F 36% 30.04 in 6.2 mi North 8.1 mph - N/A   Partly Cloudy
4:00 PM 91.4 °F 90.7 °F 59.0 °F 34% 30.04 in 6.2 mi North 9.2 mph - N/A   Partly Cloudy
4:30 PM 91.4 °F 89.4 °F 55.4 °F 29% 30.04 in 6.2 mi NNE 6.9 mph - N/A   Partly Cloudy
5:00 PM 89.6 °F 87.7 °F 55.4 °F 31% 30.04 in 6.2 mi North 10.4 mph - N/A   Partly Cloudy
5:30 PM 89.6 °F 87.7 °F 55.4 °F 31% 30.04 in 6.2 mi NNE 8.1 mph - N/A   Partly Cloudy
6:00 PM 89 °F - 57 °F 23% 29.93 in 6 mi North 8.1 mph - -   Scattered Clouds
6:00 PM 87.8 °F 86.1 °F 55.4 °F 33% 30.04 in 6.2 mi North 8.1 mph - N/A   Partly Cloudy
6:30 PM 87.8 °F 86.5 °F 57.2 °F 35% 30.04 in 6.2 mi NNE 9.2 mph - N/A   Partly Cloudy
7:00 PM 86.0 °F 84.9 °F 57.2 °F 37% 30.04 in 6.2 mi NNE 8.1 mph - N/A   Partly Cloudy
7:30 PM 82.4 °F 83.4 °F 62.6 °F 51% 30.04 in 5.6 mi North 10.4 mph - N/A   Partly Cloudy
8:00 PM 80.6 °F 81.8 °F 62.6 °F 54% 30.06 in 5.6 mi NNE 9.2 mph - N/A   Partly Cloudy
8:30 PM 77.0 °F - 62.6 °F 61% 30.06 in 5.6 mi NNE 8.1 mph - N/A   Partly Cloudy
9:00 PM 76 °F - 63 °F 55% 30.01 in 6 mi NE 6.9 mph - -   Scattered Clouds
9:00 PM 75.2 °F - 62.6 °F 65% 30.09 in 5.6 mi NE 6.9 mph - N/A   Partly Cloudy
9:30 PM 75.2 °F - 62.6 °F 65% 30.09 in 5.0 mi North 5.8 mph - N/A   Partly Cloudy
10:00 PM 71.6 °F - 62.6 °F 73% 30.12 in 5.6 mi SW 6.9 mph - N/A   Partly Cloudy
10:30 PM 69.8 °F - 62.6 °F 78% 30.12 in 5.6 mi WSW 6.9 mph - N/A   Partly Cloudy
11:00 PM 68.0 °F - 62.6 °F 83% 30.09 in 5.6 mi WSW 5.8 mph - N/A   Unknown
11:30 PM 66.2 °F - 60.8 °F 83% 30.09 in 5.6 mi WSW 3.5 mph - N/A   Unknown